When you browse on this site, cookies collect data to enhance your experience and personalize the content and advertising you see.
Visit our Privacy Policy to learn more. By continuing to use the site, you agree to this use of cookies and data.
  • In Austria
  • List of Countries
  • For 7 days
  • Water Temperature
  • Weather Map
  • News
  • Weather Widgets
  • user-avatar
    Login

    Hourly Weather Adelaide

    Today, 23 February, Sunday

    Time Temperature Precipitation Wind Pressure Humidity
    00:00 +18°C° 0 mm 2 mps 760 mmHg 63%
    01:00 +18°C° 0 mm 2 mps 760 mmHg 60%
    02:00 +18°C° 0 mm 2 mps 759 mmHg 58%
    03:00 +19°C° 0 mm 1 mps 759 mmHg 54%
    04:00 +19°C° 0 mm 1 mps 759 mmHg 50%
    05:00 +20°C° 0 mm 1 mps 759 mmHg 46%
    06:00 +20°C° 0 mm 1 mps 759 mmHg 42%
    07:00 +23°C° 0 mm 1 mps 759 mmHg 37%
    08:00 +25°C° 0 mm 1 mps 760 mmHg 32%
    09:00 +28°C° 0 mm 2 mps 760 mmHg 28%
    10:00 +29°C° 0 mm 2 mps 759 mmHg 26%
    11:00 +30°C° 0 mm 2 mps 759 mmHg 24%
    12:00 +31°C° 0 mm 2 mps 758 mmHg 22%
    13:00 +31°C° 0 mm 2 mps 758 mmHg 23%
    14:00 +31°C° 0 mm 3 mps 757 mmHg 24%
    15:00 +32°C° 0 mm 2 mps 757 mmHg 25%
    16:00 +31°C° 0 mm 2 mps 757 mmHg 26%
    17:00 +29°C° 0 mm 2 mps 757 mmHg 28%
    18:00 +28°C° 0 mm 2 mps 757 mmHg 29%
    19:00 +27°C° 0 mm 2 mps 758 mmHg 33%
    20:00 +26°C° 0 mm 2 mps 758 mmHg 36%
    21:00 +25°C° 0 mm 2 mps 758 mmHg 36%
    22:00 +25°C° 0 mm 2 mps 758 mmHg 38%
    23:00 +25°C° 0 mm 2 mps 758 mmHg 40%

    Tomorrow, 24 February, Monday

    Time Temperature Precipitation Wind Pressure Humidity
    00:00 +24°C° 0 mm 2 mps 758 mmHg 42%
    01:00 +24°C° 0 mm 2 mps 758 mmHg 43%
    02:00 +23°C° 0 mm 2 mps 758 mmHg 44%
    03:00 +23°C° 0 mm 2 mps 757 mmHg 46%
    04:00 +23°C° 0 mm 2 mps 758 mmHg 44%
    05:00 +23°C° 0 mm 1 mps 758 mmHg 43%
    06:00 +24°C° 0 mm 1 mps 758 mmHg 41%
    07:00 +26°C° 0 mm 1 mps 758 mmHg 39%
    08:00 +28°C° 0 mm 1 mps 758 mmHg 36%
    09:00 +30°C° 0 mm 1 mps 758 mmHg 34%
    10:00 +31°C° 0 mm 2 mps 758 mmHg 32%
    11:00 +31°C° 0 mm 2 mps 758 mmHg 30%
    12:00 +33°C° 0 mm 3 mps 758 mmHg 28%
    13:00 +33°C° 0 mm 4 mps 757 mmHg 28%
    14:00 +33°C° 0 mm 4 mps 756 mmHg 29%
    15:00 +33°C° 0 mm 5 mps 756 mmHg 29%
    16:00 +30°C° 0 mm 4 mps 756 mmHg 33%
    17:00 +29°C° 0 mm 4 mps 756 mmHg 37%
    18:00 +27°C° 0 mm 3 mps 756 mmHg 41%
    19:00 +26°C° 0 mm 3 mps 756 mmHg 46%
    20:00 +25°C° 0 mm 3 mps 757 mmHg 50%
    21:00 +22°C° 0 mm 3 mps 757 mmHg 55%
    22:00 +23°C° 0 mm 2 mps 757 mmHg 55%
    23:00 +23°C° 0 mm 2 mps 757 mmHg 56%

    Day after tomorrow, 25 February, Tuesday

    Time Temperature Precipitation Wind Pressure Humidity
    00:00 +21°C° 0 mm 2 mps 757 mmHg 56%
    01:00 +22°C° 0 mm 1 mps 756 mmHg 56%
    02:00 +22°C° 0 mm 1 mps 756 mmHg 56%
    03:00 +22°C° 0 mm 1 mps 755 mmHg 56%
    04:00 +21°C° 0 mm 1 mps 756 mmHg 59%
    05:00 +21°C° 0 mm 1 mps 756 mmHg 62%
    06:00 +21°C° 0 mm 1 mps 756 mmHg 65%
    07:00 +23°C° 0 mm 2 mps 756 mmHg 60%
    08:00 +24°C° 0 mm 2 mps 757 mmHg 55%
    09:00 +26°C° 0 mm 3 mps 757 mmHg 50%
    10:00 +26°C° 0 mm 4 mps 757 mmHg 49%
    11:00 +27°C° 0 mm 4 mps 756 mmHg 48%
    12:00 +27°C° 0 mm 5 mps 756 mmHg 47%
    13:00 +27°C° 0 mm 5 mps 756 mmHg 46%
    14:00 +27°C° 0 mm 5 mps 755 mmHg 45%
    15:00 +27°C° 0 mm 5 mps 755 mmHg 44%
    16:00 +26°C° 0 mm 5 mps 755 mmHg 48%
    17:00 +25°C° 0 mm 4 mps 755 mmHg 51%
    18:00 +23°C° 0 mm 4 mps 756 mmHg 55%
    19:00 +22°C° 0 mm 4 mps 756 mmHg 59%
    20:00 +21°C° 0 mm 3 mps 756 mmHg 63%
    21:00 +20°C° 0 mm 3 mps 756 mmHg 66%
    22:00 +19°C° 0 mm 3 mps 756 mmHg 72%
    23:00 +19°C° 0 mm 3 mps 756 mmHg 77%

    26 February, Wednesday

    Time Temperature Precipitation Wind Pressure Humidity
    00:00 +18°C° 0 mm 3 mps 756 mmHg 82%
    01:00 +18°C° 0 mm 4 mps 755 mmHg 82%
    02:00 +19°C° 0 mm 5 mps 755 mmHg 81%
    03:00 +19°C° 0 mm 6 mps 755 mmHg 81%
    04:00 +17°C° 0 mm 5 mps 756 mmHg 78%
    05:00 +17°C° 0 mm 5 mps 756 mmHg 75%
    06:00 +17°C° 0 mm 5 mps 757 mmHg 73%
    07:00 +17°C° 0.1 mm 5 mps 757 mmHg 70%
    08:00 +17°C° 0.1 mm 5 mps 757 mmHg 68%
    09:00 +19°C° 0.1 mm 5 mps 758 mmHg 65%
    10:00 +20°C° 0 mm 6 mps 758 mmHg 59%
    11:00 +21°C° 0 mm 6 mps 758 mmHg 52%
    12:00 +21°C° 0 mm 6 mps 758 mmHg 45%
    13:00 +21°C° 0 mm 6 mps 758 mmHg 45%
    14:00 +21°C° 0 mm 6 mps 758 mmHg 44%
    15:00 +21°C° 0 mm 6 mps 757 mmHg 44%
    16:00 +20°C° 0 mm 6 mps 758 mmHg 47%
    17:00 +19°C° 0 mm 6 mps 758 mmHg 49%
    18:00 +16°C° 0 mm 6 mps 758 mmHg 52%
    19:00 +15°C° 0 mm 5 mps 759 mmHg 56%
    20:00 +15°C° 0 mm 5 mps 759 mmHg 60%
    21:00 +14°C° 0 mm 4 mps 760 mmHg 65%
    22:00 +13°C° 0 mm 4 mps 760 mmHg 66%
    23:00 +13°C° 0 mm 4 mps 759 mmHg 68%

    27 February, Thursday

    Time Temperature Precipitation Wind Pressure Humidity
    00:00 +12°C° 0 mm 3 mps 759 mmHg 70%
    01:00 +12°C° 0 mm 3 mps 759 mmHg 71%
    02:00 +12°C° 0 mm 3 mps 759 mmHg 73%
    03:00 +12°C° 0 mm 3 mps 759 mmHg 74%
    04:00 +11°C° 0 mm 3 mps 759 mmHg 74%
    05:00 +12°C° 0 mm 2 mps 759 mmHg 75%
    06:00 +12°C° 0 mm 2 mps 759 mmHg 76%
    07:00 +14°C° 0 mm 2 mps 760 mmHg 66%
    08:00 +18°C° 0 mm 1 mps 760 mmHg 57%
    09:00 +20°C° 0 mm 1 mps 760 mmHg 47%
    10:00 +20°C° 0 mm 2 mps 760 mmHg 46%
    11:00 +20°C° 0 mm 3 mps 760 mmHg 45%
    12:00 +21°C° 0 mm 4 mps 760 mmHg 44%
    13:00 +21°C° 0 mm 4 mps 759 mmHg 46%
    14:00 +21°C° 0 mm 5 mps 759 mmHg 48%
    15:00 +21°C° 0 mm 5 mps 758 mmHg 50%
    16:00 +20°C° 0 mm 5 mps 758 mmHg 53%
    17:00 +20°C° 0 mm 5 mps 759 mmHg 55%
    18:00 +19°C° 0 mm 5 mps 759 mmHg 58%
    19:00 +17°C° 0 mm 5 mps 759 mmHg 64%
    20:00 +15°C° 0 mm 4 mps 760 mmHg 70%
    21:00 +14°C° 0 mm 4 mps 760 mmHg 76%
    22:00 +14°C° 0 mm 3 mps 760 mmHg 78%
    23:00 +13°C° 0 mm 3 mps 760 mmHg 80%

    28 February, Friday

    Time Temperature Precipitation Wind Pressure Humidity
    00:00 +13°C° 0 mm 3 mps 760 mmHg 81%
    01:00 +13°C° 0 mm 3 mps 759 mmHg 82%
    02:00 +14°C° 0 mm 2 mps 759 mmHg 83%
    03:00 +14°C° 0 mm 2 mps 759 mmHg 84%
    04:00 +14°C° 0 mm 2 mps 759 mmHg 83%
    05:00 +14°C° 0 mm 1 mps 760 mmHg 83%
    06:00 +14°C° 0 mm 1 mps 760 mmHg 82%
    07:00 +16°C° 0 mm 1 mps 760 mmHg 72%
    08:00 +19°C° 0 mm 1 mps 760 mmHg 62%
    09:00 +21°C° 0 mm 1 mps 760 mmHg 52%
    10:00 +21°C° 0 mm 2 mps 760 mmHg 50%
    11:00 +22°C° 0 mm 3 mps 760 mmHg 48%
    12:00 +24°C° 0 mm 3 mps 760 mmHg 45%
    13:00 +23°C° 0 mm 4 mps 759 mmHg 47%
    14:00 +23°C° 0 mm 4 mps 759 mmHg 49%
    15:00 +23°C° 0 mm 5 mps 758 mmHg 51%
    16:00 +22°C° 0 mm 5 mps 759 mmHg 55%
    17:00 +21°C° 0 mm 5 mps 759 mmHg 58%
    18:00 +20°C° 0 mm 5 mps 759 mmHg 62%
    19:00 +19°C° 0 mm 4 mps 759 mmHg 68%
    20:00 +17°C° 0 mm 4 mps 760 mmHg 74%
    21:00 +16°C° 0 mm 3 mps 760 mmHg 80%
    22:00 +16°C° 0 mm 3 mps 760 mmHg 82%
    23:00 +14°C° 0 mm 3 mps 760 mmHg 84%
    Show more